Weather History for Goodland, KS

Change the Weather History Date:

Saturday, May 25, 2013

  Actual Average Record
Temperature  
Mean Temperature 79 °F 62 °F  
Max Temperature 93 °F 76 °F 97 °F (1964)
Min Temperature 64 °F 49 °F 29 °F (1992)
Degree Days  
Heating Degree Days 0 4  
Month to date heating degree days 202 189  
Since 1 July heating degree days 5952 5844  
Cooling Degree Days 14 2  
Month to date cooling degree days 67 27  
Year to date cooling degree days 67 31  
Growing Degree Days 28 (Base 50)    
Moisture  
Dew Point 52 °F    
Average Humidity 51    
Maximum Humidity 78    
Minimum Humidity 24    
Precipitation  
Precipitation 0.36 in 0.11 in 2.52 in (1996)
Month to date precipitation 1.07 2.25  
Year to date precipitation 4.16 5.78  
Snow  
Snow 0.00 in 0.00 in - ()
Month to date snowfall 3.5 0.5  
Since 1 July snowfall 59.2 35.5  
Snow Depth 0.00 in    
Sea Level Pressure  
Sea Level Pressure 29.81 in    
Wind  
Wind Speed 18 mph (SSE)    
Max Wind Speed 39 mph    
Max Gust Speed 52 mph    
Visibility 9 miles    
Events Rain , Thunderstorm    
T = Trace of Precipitation, MM = Missing Value Source: NWS Daily Summary

Daily Weather History Graph

Daily Weather History Graph

Search for Another Location

Airport:

Trip Planner

Search our weather history database for the weather conditions in past years. The results will help you decide how hot, cold, wet, or windy it might be!

Date:

Astronomy

May. 25, 2013 Rise Set
Actual Time 5:25 AM MDT 8:02 PM MDT
Civil Twilight 4:54 AM MDT 8:33 PM MDT
Nautical Twilight 4:15 AM MDT 9:12 PM MDT
Astronomical Twilight 3:31 AM MDT 9:56 PM MDT
Moon 8:52 PM MDT (5/25) 5:54 AM MDT (5/25)
Length of Visible Light 15h 39m
Length of Day
14h 37m
Waxing Gibbous, 99% of the Moon is Illuminated
May 25
Waxing Gibbous
May 31
Last Quarter
Jun 8
New
Jun 16
First Quarter
Jun 23
Full

Hourly Weather History & Observations

Time (MDT) Temp. Heat Index Dew Point Humidity Pressure Visibility Wind Dir Wind Speed Gust Speed Precip Events Conditions
12:36 AM 71.6 °F - 48.2 °F 43% 29.90 in 10.0 mi South 26.5 mph 35.7 mph N/A   Mostly Cloudy
12:53 AM 70.0 °F - 48.0 °F 46% 29.77 in 10.0 mi South 24.2 mph 33.4 mph N/A   Mostly Cloudy
1:05 AM 69.8 °F - 48.2 °F 46% 29.90 in 10.0 mi South 21.9 mph 29.9 mph N/A   Scattered Clouds
1:25 AM 69.8 °F - 46.4 °F 43% 29.90 in 10.0 mi South 20.7 mph - N/A   Mostly Cloudy
1:53 AM 70.0 °F - 43.0 °F 38% 29.75 in 6.0 mi South 20.7 mph - N/A   Haze
2:04 AM 71.6 °F - 41.0 °F 33% 29.90 in 7.0 mi SSW 18.4 mph 29.9 mph N/A   Overcast
2:36 AM 71.6 °F - 39.2 °F 31% 29.90 in 10.0 mi SW 20.7 mph 34.5 mph N/A   Scattered Clouds
2:53 AM 69.1 °F - 39.0 °F 33% 29.76 in 10.0 mi SW 20.7 mph 32.2 mph N/A   Clear
3:53 AM 66.9 °F - 44.1 °F 44% 29.77 in 10.0 mi SW 25.3 mph 34.5 mph N/A   Clear
4:53 AM 68.0 °F - 48.9 °F 50% 29.79 in 10.0 mi SW 25.3 mph 34.5 mph N/A   Clear
5:53 AM 66.0 °F - 50.0 °F 56% 29.81 in 10.0 mi SSW 15.0 mph - N/A   Clear
6:53 AM 64.9 °F - 51.1 °F 61% 29.87 in 10.0 mi South 8.1 mph - N/A   Clear
7:53 AM 69.1 °F - 52.0 °F 54% 29.89 in 10.0 mi ESE 3.5 mph - N/A   Clear
8:53 AM 72.0 °F - 53.1 °F 51% 29.88 in 10.0 mi SE 6.9 mph - N/A   Clear
9:53 AM 75.9 °F - 53.1 °F 45% 29.86 in 10.0 mi South 8.1 mph - N/A   Clear
10:53 AM 81.0 °F 80.4 °F 53.1 °F 38% 29.83 in 10.0 mi South 15.0 mph 23.0 mph N/A   Clear
11:53 AM 84.9 °F 83.2 °F 53.1 °F 33% 29.80 in 10.0 mi South 11.5 mph 21.9 mph N/A   Clear
12:53 PM 88.0 °F - 51.1 °F 28% 29.77 in 10.0 mi South 13.8 mph 26.5 mph N/A   Clear
1:53 PM 90.0 °F - 51.1 °F 26% 29.75 in 10.0 mi South 18.4 mph 25.3 mph N/A   Clear
2:53 PM 93.0 °F - 51.1 °F 24% 29.72 in 10.0 mi SSE 18.4 mph 31.1 mph N/A   Scattered Clouds
3:48 PM 89.6 °F - 44.6 °F 21% 29.85 in 10.0 mi South 27.6 mph 32.2 mph N/A Thunderstorm Partly Cloudy
3:53 PM 88.0 °F - 44.1 °F 22% 29.70 in 10.0 mi South 26.5 mph 35.7 mph N/A Thunderstorm Partly Cloudy
4:45 PM 68.0 °F - 55.4 °F 64% 29.84 in 2.5 mi SSE 20.7 mph 44.9 mph 0.07 in Rain , Thunderstorm Light Thunderstorms and Rain
4:53 PM 75.0 °F - 59.0 °F 57% 29.71 in 10.0 mi SE 24.2 mph 29.9 mph 0.07 in Thunderstorm Thunderstorm
5:00 PM 77.0 °F - 59.0 °F 54% 29.84 in 10.0 mi ESE 21.9 mph 29.9 mph N/A Thunderstorm Thunderstorm
5:47 PM 68.0 °F - 60.8 °F 78% 29.92 in 2.5 mi South 26.5 mph 51.8 mph 0.01 in Rain , Thunderstorm Light Thunderstorms and Rain
5:53 PM 64.9 °F - 59.0 °F 81% 29.77 in 1.8 mi South 25.3 mph 51.8 mph 0.18 in Rain , Thunderstorm Heavy Thunderstorms and Rain
5:56 PM 64.4 °F - 57.2 °F 77% 29.87 in 2.5 mi SSE 27.6 mph 32.2 mph 0.04 in Rain , Thunderstorm Heavy Thunderstorms and Rain
5:58 PM 66.2 °F - 57.2 °F 73% 29.87 in 3.0 mi SSE 26.5 mph 32.2 mph 0.06 in Rain , Thunderstorm Heavy Thunderstorms and Rain
6:07 PM 71.6 °F - 55.4 °F 57% 29.87 in 10.0 mi SE 16.1 mph 35.7 mph 0.09 in Rain , Thunderstorm Light Thunderstorms and Rain
6:35 PM 71.6 °F - 57.2 °F 60% 29.85 in 10.0 mi SE 25.3 mph 31.1 mph 0.09 in Thunderstorm Clear
6:53 PM 73.0 °F - 54.0 °F 51% 29.74 in 10.0 mi SE 25.3 mph 36.8 mph 0.09 in Thunderstorm Clear
7:09 PM 73.4 °F - 57.2 °F 57% 29.84 in 10.0 mi SE 15.0 mph 29.9 mph 0.00 in Rain Light Rain
7:53 PM 73.0 °F - 57.9 °F 59% 29.73 in 10.0 mi SE 23.0 mph 33.4 mph 0.02 in   Clear
8:53 PM 70.0 °F - 57.9 °F 65% 29.74 in 10.0 mi SE 18.4 mph - N/A   Clear
9:53 PM 66.9 °F - 59.0 °F 76% 29.77 in 10.0 mi East 15.0 mph - N/A   Clear
10:53 PM 69.1 °F - 57.0 °F 65% 29.76 in 10.0 mi SE 16.1 mph - N/A   Clear
11:53 PM 66.9 °F - 55.9 °F 68% 29.74 in 10.0 mi SSE 19.6 mph - N/A   Clear